Location: Newark
(27.9675°N, 86.8869°E)
Time: 15:36:17
(UTC+00:00)

Altair - Pass Details

Date: 30 October 2019
Orbit: 1502 x 1682 km, 47.2° (Epoch: 17 November)

Event Time Altitude Azimuth Distance (km) Brightness Sun altitude
Rises 02:14:47 0° 243° (WSW) 4,629 9.7 22.2°
Reaches altitude 10° 02:17:52 10° 247° (WSW) 3,658 9.2 22.8°
Maximum altitude 02:26:52 57° 325° (NW) 1,761 7.9 24.5°
Drops below altitude 10° 02:36:13 10° 43° (NE) 3,776 9.7 26.2°
Sets 02:39:28 0° 47° (NE) 4,787 10.2 26.8°
